Stations météo

Publicité
Trappes, France (7145): Température de l'air & dewpoint: 11.11.2018 17:00:00 - 17.11.2018 17:00:00 (CET)Trappes, France (7145): Température de l'air 5cm: 11.11.2018 17:00:00 - 17.11.2018 17:00:00 (CET)Trappes, France (7145): Température de l'air -20cm & Température de l'air -100cm: 11.11.2018 17:00:00 - 17.11.2018 17:00:00 (CET)Trappes, France (7145): Vitesse du vent & gusts: 11.11.2018 17:00:00 - 17.11.2018 17:00:00 (CET)Trappes, France (7145): Direction du vent: 11.11.2018 17:00:00 - 17.11.2018 17:00:00 (CET)Trappes, France (7145): reduced air pressure: 11.11.2018 17:00:00 - 17.11.2018 17:00:00 (CET)Trappes, France (7145): visibility: 11.11.2018 17:00:00 - 17.11.2018 17:00:00 (CET)Trappes, France (7145): Ensoleillement: 11.11.2018 17:00:00 - 17.11.2018 17:00:00 (CET)Trappes, France (7145): Quantités de précipitations: 11.11.2018 17:00:00 - 17.11.2018 17:00:00 (CET)
Date & Time tt [°C] td [°C] tt 5cm [°C] tt -20cm [°C] tt -100cm [°C] ff [km/h] ff [knt] fx [km/h] fx [knt] dd ppp [hPa] vv [km] sd [min] rr [mm]
17.11.2018 17:00:00 6,5 2,4 5,6 9,2 12,2 16 9 29 16 ENE 1023,0 16 42 0,0
17.11.2018 16:00:00 7,4 1,9 8,8 9,2 12,3 15 8 29 16 E 1022,7 18 60 0,0
17.11.2018 15:00:00 7,2 2,3 9,4 9,1 12,2 20 11 29 15 ENE 1022,8 15 60 0,0
17.11.2018 14:00:00 7,1 2,0 9,9 9,1 12,3 16 9 30 16 E 1023,1 14 60 0,0
17.11.2018 13:00:00 6,6 1,7 9,4 9,0 12,3 14 8 26 14 E 1023,3 14 60 0,0
17.11.2018 12:00:00 6,1 2,2 6,9 9,1 12,3 11 6 30 16 E 1024,2 12 60 0,0
17.11.2018 11:00:00 5,2 2,0 5,6 9,1 12,2 14 8 23 12 E 1024,8 11 55 0,0
17.11.2018 10:00:00 4,0 1,9 3,7 9,2 12,2 13 7 25 13 E 1024,8 8 60 0,0
17.11.2018 09:00:00 3,1 1,9 2,2 9,4 12,3 8 5 19 10 E 1024,8 5 19 0,0
17.11.2018 08:00:00 3,6 2,1 3,3 9,5 12,3 12 6 24 13 E 1024,6 7 0 0,0
17.11.2018 07:00:00 3,7 2,5 3,4 9,5 12,2 9 5 23 12 E 1024,6 6 0 0,0
17.11.2018 06:00:00 3,5 2,3 3,5 9,6 12,3 12 7 21 12 E 1024,8 4,5 0 0,0
17.11.2018 05:00:00 3,6 2,9 3,4 9,7 12,3 8 4 21 11 ESE 1024,9 4,3 0 0,0
17.11.2018 04:00:00 3,6 3,2 3,8 9,7 12,3 9 5 23 12 ESE 1025,4 5 0 0,0
17.11.2018 03:00:00 4,1 3,8 4,3 9,8 12,3 13 7 22 12 E 1025,4 6 0 0,0
17.11.2018 02:00:00 4,6 4,3 4,8 9,9 12,3 11 6 26 14 E 1025,1 7 0 0,0
17.11.2018 01:00:00 5,0 4,9 5,3 9,9 12,3 12 6 23 13 E 1025,0 7 0 0,0
17.11.2018 00:00:00 5,3 5,3 5,5 10,0 12,3 11 6 25 13 E 1025,3 6 0 0,0
16.11.2018 23:00:00 5,4 5,4 5,6 10,0 12,3 13 7 22 12 E 1025,4 6 0 0,0
16.11.2018 22:00:00 5,7 5,7 5,8 10,1 12,3 10 5 17 9 E 1025,1 0,2 0 0,0
16.11.2018 21:00:00 5,9 5,9 5,8 10,1 12,3 6 3 17 9 E 1025,3 0,2 0 0,0
16.11.2018 20:00:00 5,9 5,9 5,9 10,2 12,3 10 5 16 9 E 1025,4 0,2 0 0,0
16.11.2018 19:00:00 5,7 5,7 5,8 10,2 12,3 9 5 19 10 E 1025,1 0,2 0 0,0
16.11.2018 18:00:00 6,3 6,3 6,2 10,3 12,3 7 4 16 9 E 1025,0 0,3 0 0,0
16.11.2018 17:00:00 6,4 6,4 6,5 10,3 12,3 7 4 14 8 E 1024,8 0,3 0 0,0
16.11.2018 16:00:00 6,9 6,9 7,3 10,2 12,3 6 3 14 7 E 1025,2 0,4 0 0,0
16.11.2018 15:00:00 6,9 6,9 7,5 10,2 12,3 7 4 18 10 E 1025,3 0,5 0 0,0
16.11.2018 14:00:00 7,2 7,2 7,9 10,1 12,3 11 6 17 9 ENE 1025,5 0,8 0 0,0
16.11.2018 13:00:00 7,5 7,5 8,1 10,0 12,3 5 3 12 7 E 1025,6 0,4 0 0,0
16.11.2018 12:00:00 7,3 7,3 8,0 10,0 12,3 7 4 15 8 ESE 1025,9 0,3 0 0,0
16.11.2018 11:00:00 7,4 7,4 7,7 10,0 12,3 7 4 17 9 ESE 1026,0 0,2 0 0,0
16.11.2018 10:00:00 7,3 7,3 7,7 10,0 12,3 9 5 16 9 E 1025,7 0,2 0 0,0
16.11.2018 09:00:00 7,6 7,6 7,7 10,0 12,3 9 5 16 9 E 1025,3 0,1 0 0,0
16.11.2018 08:00:00 7,7 7,7 7,8 10,1 12,3 9 5 15 8 E 1024,7 0,2 0 0,0
16.11.2018 07:00:00 7,9 7,9 7,9 10,0 12,3 8 4 13 7 E 1024,7 0,2 0 0,2
16.11.2018 06:00:00 8,2 8,2 8,2 10,0 12,3 6 3 14 8 E 1024,5 0,2 0 0,0
16.11.2018 05:00:00 8,4 8,4 8,3 10,1 12,4 8 4 14 8 E 1024,1 0,2 0 0,0
16.11.2018 04:00:00 8,3 8,3 8,2 10,0 12,3 5 3 15 8 E 1024,2 0,2 0 0,0
16.11.2018 03:00:00 8,3 8,3 8,2 10,0 12,3 8 5 16 9 E 1024,0 0,2 0 0,0
16.11.2018 02:00:00 8,3 8,3 8,3 10,0 12,3 8 4 14 7 ESE 1024,0 0,2 0 0,0
16.11.2018 01:00:00 8,3 8,3 8,2 10,1 12,4 6 3 13 7 E 1024,1 0,2 0 0,0
16.11.2018 00:00:00 8,3 8,3 8,2 10,0 12,3 6 4 17 9 ESE 1023,8 0,2 0 0,0
15.11.2018 23:00:00 8,3 8,3 8,3 10,0 12,4 8 4 14 7 ESE 1023,8 0,2 0 0,0
15.11.2018 22:00:00 8,5 8,4 8,5 10,0 12,4 5 3 11 6 E 1023,8 0,2 0 0,2
15.11.2018 21:00:00 9,0 9,0 9,0 10,0 12,4 4 2 14 8 ESE 1023,4 0,2 0 0,0
15.11.2018 20:00:00 9,1 9,0 9,0 9,9 12,4 7 4 16 9 SE 1023,1 0,3 0 0,0
15.11.2018 19:00:00 9,4 9,4 9,2 9,9 12,4 7 4 20 11 ESE 1022,7 0,2 0 0,0
15.11.2018 18:00:00 9,2 9,2 9,1 9,9 12,4 10 5 17 9 E 1022,4 0,2 0 0,0
15.11.2018 17:00:00 9,2 9,2 9,1 9,8 12,4 4 2 14 8 SE 1022,5 0,2 0 0,0
15.11.2018 16:00:00 9,1 9,1 9,1 9,7 12,4 7 4 15 8 ESE 1022,4 0,3 0 0,0
15.11.2018 15:00:00 8,8 8,8 8,9 9,6 12,4 8 4 16 8 SE 1022,6 0,2 0 0,0
15.11.2018 14:00:00 8,5 8,5 8,8 9,5 12,4 9 5 17 9 ESE 1022,9 0,3 0 0,0
15.11.2018 13:00:00 8,4 8,4 8,7 9,4 12,4 7 4 16 8 SE 1023,1 0,3 0 0,0
15.11.2018 12:00:00 8,1 8,0 8,5 9,4 12,4 8 5 18 10 ESE 1023,5 0,2 0 0,0
15.11.2018 11:00:00 8,2 8,2 8,3 9,4 12,4 10 5 20 11 SE 1023,7 0,3 0 0,0
15.11.2018 10:00:00 8,0 8,0 8,0 9,3 12,4 9 5 18 10 ESE 1023,8 0,3 0 0,0
15.11.2018 09:00:00 7,9 7,9 7,5 9,3 12,4 10 5 21 11 SE 1023,8 0,3 0 0,0
15.11.2018 08:00:00 7,5 7,5 6,9 9,3 12,4 8 4 16 9 SE 1023,3 0,3 0 0,0
15.11.2018 07:00:00 6,9 6,8 6,6 9,2 12,4 6 4 18 10 ESE 1023,1 0,3 0 0,0
15.11.2018 06:00:00 6,6 6,5 6,6 9,3 12,4 8 5 17 9 SSE 1022,7 0,3 0 0,0
15.11.2018 05:00:00 7,4 7,3 7,3 9,4 12,4 7 4 16 9 SE 1022,6 0,3 0 0,0
15.11.2018 04:00:00 7,9 7,8 7,5 9,4 12,4 7 4 16 9 SE 1022,6 0,3 0 0,0
15.11.2018 03:00:00 7,6 7,3 6,2 9,5 12,4 6 3 10 5 SE 1023,0 0,3 0 0,0
15.11.2018 02:00:00 7,6 7,3 2,4 9,6 12,4 5 3 8 4 SE 1023,0 4,1 0 0,0
15.11.2018 01:00:00 6,8 6,5 1,0 9,7 12,5 3 2 5 3 SE 1023,5 8 0 0,0
15.11.2018 00:00:00 6,4 5,8 1,6 9,8 12,4 0 0 3 2 N 1023,7 0,3 0 0,0
14.11.2018 23:00:00 7,5 6,8 2,8 9,8 12,4 2 1 5 3 ESE 1023,7 0,8 0 0,0
14.11.2018 22:00:00 8,9 8,1 6,7 9,9 12,4 3 2 9 5 SE 1023,8 11 0 0,0
14.11.2018 21:00:00 9,6 8,5 8,4 10,0 12,5 5 3 11 6 ESE 1023,9 17 0 0,0
14.11.2018 20:00:00 10,3 8,9 9,0 10,0 12,5 6 3 13 7 SE 1023,9 20 0 0,0
14.11.2018 19:00:00 10,5 8,8 8,9 10,0 12,4 7 4 14 7 ESE 1023,9 20 0 0,0
14.11.2018 18:00:00 10,8 8,7 9,1 10,0 12,5 5 3 10 6 SE 1023,9 20 0 0,0
14.11.2018 17:00:00 11,6 8,8 10,5 9,8 12,4 3 2 13 7 S 1024,1 20 38 0,0
14.11.2018 16:00:00 12,5 8,6 14,7 9,7 12,5 7 4 14 8 SE 1024,3 10 60 0,0
14.11.2018 15:00:00 13,2 9,1 15,6 9,5 12,4 6 3 15 8 SSE 1024,3 20 60 0,0
14.11.2018 14:00:00 12,3 8,6 15,7 9,3 12,5 8 5 16 9 SE 1024,8 20 60 0,0
14.11.2018 13:00:00 12,0 8,7 14,4 9,1 12,5 6 4 16 8 SSE 1025,0 20 60 0,0
14.11.2018 12:00:00 10,5 8,3 10,8 9,1 12,5 10 5 18 10 SE 1025,4 20 60 0,0
14.11.2018 11:00:00 8,7 8,1 7,8 9,0 12,5 5 3 16 8 SE 1026,3 20 60 0,0
14.11.2018 10:00:00 6,5 6,4 5,3 9,1 12,4 5 3 15 8 SE 1026,6 3,8 29 0,0
14.11.2018 09:00:00 5,1 5,0 4,4 9,1 12,4 6 3 12 6 ESE 1027,0 0,5 0 0,0
14.11.2018 08:00:00 4,6 4,5 2,1 9,3 12,5 6 3 9 5 SE 1026,9 0,3 0 0,0
14.11.2018 07:00:00 4,4 4,3 3,0 9,4 12,5 0 0 5 3 N 1027,1 0,3 0 0,0
14.11.2018 06:00:00 4,8 4,5 2,3 9,5 12,4 2 1 9 5 SE 1027,5 0,3 0 0,0
14.11.2018 05:00:00 5,5 5,1 3,2 9,6 12,5 3 1 9 5 ESE 1028,0 4,7 0 0,0
14.11.2018 04:00:00 6,0 5,9 1,0 9,8 12,5 6 3 9 5 SE 1028,4 14 0 0,0
14.11.2018 03:00:00 5,5 5,2 2,1 9,9 12,5 0 0 5 3 N 1029,1 14 0 0,0
14.11.2018 02:00:00 5,6 5,0 2,3 10,0 12,5 0 0 10 6 N 1029,5 1,9 0 0,0
14.11.2018 01:00:00 6,6 6,3 0,2 10,2 12,4 6 4 10 5 S 1029,7 20 0 0,0
14.11.2018 00:00:00 5,8 4,9 0,9 10,4 12,5 0 0 6 3 N 1030,0 4,7 0 0,0
13.11.2018 23:00:00 7,3 6,6 2,7 10,5 12,4 4 2 8 4 S 1029,8 20 0 0,0
13.11.2018 22:00:00 7,5 6,6 3,0 10,7 12,4 3 2 9 5 SSW 1029,8 20 0 0,0
13.11.2018 21:00:00 8,1 7,3 1,7 10,8 12,5 5 3 10 6 S 1029,9 20 0 0,0
13.11.2018 20:00:00 8,0 6,8 2,2 11,0 12,5 3 2 7 4 S 1030,0 20 0 0,0
13.11.2018 19:00:00 8,8 6,8 3,6 11,0 12,5 3 2 7 4 S 1029,5 20 0 0,0
13.11.2018 18:00:00 10,0 6,9 6,0 11,1 12,5 4 2 9 5 S 1029,5 20 0 0,0
13.11.2018 17:00:00 12,1 6,8 10,3 11,0 12,5 7 4 21 12 WSW 1028,9 20 43 0,0
13.11.2018 16:00:00 13,5 7,0 14,0 10,9 12,4 11 6 23 13 WSW 1028,4 20 54 0,0
13.11.2018 15:00:00 13,9 6,7 16,3 10,9 12,5 13 7 26 14 W 1027,8 20 60 0,0
13.11.2018 14:00:00 14,0 7,1 13,8 10,7 12,4 14 7 29 16 WSW 1027,6 20 56 0,0
13.11.2018 13:00:00 13,2 7,4 14,5 10,7 12,4 16 8 34 18 WSW 1027,5 20 60 0,0
13.11.2018 12:00:00 11,9 8,0 11,1 10,6 12,4 16 9 33 18 WSW 1027,9 20 13 0,0
13.11.2018 11:00:00 11,3 8,9 11,7 10,6 12,4 15 8 29 16 SW 1027,6 20 33 0,0
13.11.2018 10:00:00 10,5 8,9 9,7 10,6 12,4 13 7 26 14 SW 1026,6 20 23 0,0
13.11.2018 09:00:00 9,7 8,8 8,8 10,7 12,4 8 5 24 13 SSW 1026,0 20 0 0,0
13.11.2018 08:00:00 9,5 8,6 8,5 10,7 12,4 10 5 24 13 SW 1025,0 20 0 0,0
13.11.2018 07:00:00 9,5 8,6 8,6 10,8 12,5 13 7 25 13 SSW 1024,2 20 0 0,0
13.11.2018 06:00:00 9,5 8,7 8,5 10,8 12,4 11 6 22 12 SSW 1023,1 20 0 0,0
13.11.2018 05:00:00 9,8 8,9 8,9 10,9 12,5 11 6 21 11 SSW 1022,5 20 0 0,0
13.11.2018 04:00:00 10,1 9,2 9,2 10,9 12,4 10 5 20 11 SW 1022,1 17 0 0,0
13.11.2018 03:00:00 10,1 9,2 9,7 10,9 12,4 10 5 22 12 SSW 1021,7 15 0 0,0
13.11.2018 02:00:00 10,1 9,3 9,4 11,0 12,5 14 8 26 14 SW 1021,3 15 0 0,0
13.11.2018 01:00:00 9,9 9,1 9,3 11,0 12,4 12 7 24 13 SSW 1020,6 14 0 0,0
13.11.2018 00:00:00 9,8 9,2 9,0 11,1 12,5 12 6 22 12 SSW 1020,3 17 0 0,0
12.11.2018 23:00:00 9,5 9,0 9,1 11,1 12,4 11 6 21 11 SSW 1019,6 16 0 0,0
12.11.2018 22:00:00 9,6 9,0 9,0 11,2 12,5 9 5 21 11 SSW 1019,4 20 0 0,0
12.11.2018 21:00:00 9,6 9,0 8,9 11,2 12,4 8 5 16 9 SSW 1018,7 20 0 0,0
12.11.2018 20:00:00 9,6 8,8 9,0 11,3 12,4 6 3 17 9 SSW 1018,6 20 0 0,0
12.11.2018 19:00:00 10,0 9,2 9,1 11,3 12,4 9 5 16 9 SSW 1018,3 20 0 0,0
12.11.2018 18:00:00 10,0 8,9 8,8 11,3 12,4 2 1 9 5 SSW 1017,8 20 0 0,0
12.11.2018 17:00:00 10,4 8,8 9,8 11,3 12,4 4 2 18 10 S 1017,2 20 27 0,0
12.11.2018 16:00:00 10,9 8,8 11,1 11,2 12,4 12 6 23 12 SW 1016,6 20 8 0,0
12.11.2018 15:00:00 10,8 8,9 11,0 11,1 12,4 9 5 17 9 SSW 1016,1 20 0 0,0
12.11.2018 14:00:00 10,9 8,8 11,6 11,0 12,4 7 4 15 8 SSW 1016,0 20 0 0,0
12.11.2018 13:00:00 10,3 8,7 10,7 10,9 12,4 7 4 13 7 SSW 1015,3 20 0 0,0
12.11.2018 12:00:00 9,8 8,9 9,8 10,9 12,4 4 2 6 3 S 1015,0 20 0 0,0
12.11.2018 11:00:00 9,4 8,6 9,2 10,8 12,4 3 1 18 10 NW 1014,9 20 0 0,6
12.11.2018 10:00:00 9,2 8,7 9,2 10,8 12,4 10 5 21 11 W 1014,3 7 0 1,0
12.11.2018 09:00:00 9,4 8,9 9,2 10,9 12,4 5 3 14 8 WNW 1012,9 8 0 0,2
12.11.2018 08:00:00 9,7 9,2 9,4 10,9 12,4 4 2 11 6 NW 1012,1 14 0 1,6
12.11.2018 07:00:00 9,8 9,3 9,4 10,9 12,4 4 2 12 6 W 1011,4 9 0 1,4
12.11.2018 06:00:00 10,1 9,6 9,5 10,9 12,4 5 3 10 5 W 1011,1 19 0 1,2
12.11.2018 05:00:00 10,1 9,6 9,6 11,0 12,4 0 0 6 3 N 1010,4 8 0 1,8
12.11.2018 04:00:00 10,2 9,7 9,8 10,9 12,4 3 2 15 8 SSW 1010,6 5 0 1,7
12.11.2018 03:00:00 10,4 9,9 10,0 11,0 12,4 6 3 15 8 SSW 1010,9 11 0 1,8
12.11.2018 02:00:00 10,5 10,0 10,1 11,0 12,4 4 2 11 6 SE 1010,4 6 0 1,4
12.11.2018 01:00:00 10,5 10,2 9,9 11,0 12,4 6 3 10 6 S 1011,0 16 0 0,6
12.11.2018 00:00:00 10,6 10,1 10,0 11,0 12,4 5 3 9 5 S 1010,8 20 0 0,4
11.11.2018 23:00:00 10,6 10,1 9,8 11,1 12,4 4 2 9 5 S 1010,8 20 0 0,6
11.11.2018 22:00:00 10,7 10,1 10,0 11,1 12,4 4 2 14 8 SSW 1010,9 20 0 0,4
11.11.2018 21:00:00 10,6 10,0 10,0 11,1 12,4 5 3 15 8 SSW 1010,3 20 0 0,0
11.11.2018 20:00:00 10,7 9,9 10,1 11,1 12,4 7 4 19 10 SSW 1010,0 20 0 0,0
11.11.2018 19:00:00 10,7 9,9 10,0 11,1 12,4 7 4 20 11 S 1009,3 20 0 0,2
11.11.2018 18:00:00 11,2 10,1 10,4 11,1 12,4 9 5 26 14 SSW 1008,8 20 0 0,2
11.11.2018 17:00:00 11,3 9,9 10,4 11,1 12,4 11 6 31 17 SSW 1007,9 15 0 1,4

tt = Température de l'air
td = dewpoint
tt 5cm = Température de l'air 5cm
tt -20cm = Température de l'air -20cm
tt -100cm = Température de l'air -100cm
ff = Vitesse du vent
fx = gusts
dd = Direction du vent
ppp = reduced air pressure
vv = visibility
sd = Ensoleillement
rr = Quantités de précipitations

stations d'obs. à proximité